星链-30849 (STARLINK-30849 )

导读 | 豆包AI

STARLINK-30849是美国SpaceX公司星链(Starlink)星座中的一颗低轨通信卫星,于2023年11月8日发射入轨。它属于星链全球卫星互联网项目,依托Ku、Ka波段通信载荷与先进处理技术,为全球用户提供宽带互联服务。卫星采用平板设计、氪工质霍尔推进,具备自主避撞能力,寿命末期将主动离轨焚毁,减少空间碎片影响,助力全球无缝覆盖的通信网络建设。

基本信息
目录编号:
58245
目录名称:
STARLINK-30849
国际标识:
2023-171R
轨道中心:
EARTH
卫星名称:
星链-30849
卫星全名:
星链-30849 (STARLINK-30849 )
卫星状态:
在轨 (已飞行904 天)
发射日期:
2023-11-08 UTC
国别 :
美国 (US)
星等 :
--
轨道信息
数据来源 国际轨道数据
星历时间: 2026-04-30T08:18:14+0800
18小时前
查看轨道信息
半长轴: 6861.193km
偏心率: 0.0001257
轨道倾角: 43.002°
近地点辐角 271.839°
升交点赤经 355.383°
平近点角 88.232°
近地点: 482.193km
远地点: 483.919km
周期: 94.267分钟
每日圈数: 15.27578
详细信息
固有亮度:
5
最大亮度:
0.3
卫星平台:
Starlink v2.0 mini
覆盖范围:
全球
运营商:
太空探索技术公司
运营商所在国:
美国
制造商(研发单位):
太空探索技术公司
制造商所在国:
美国
使用方式:
暂无
卫星简介
星链(Starlink)计划是由太空探索技术公司(SpaceX)提出的一个巨型低轨卫星互联网星座项目,计划在2019年至2024年间在太空搭建由约1.2万颗卫星组成的“星链”网络,其中1584颗将部署在地球上空550千米处的近地轨道,并从2020年开始工作。该卫星仍在工作。
2D轨道图
3D轨道图
轨道高度分析图
轨道倾角分析图
轨道综合分析图
查看轨道综合分析图